Flag for France Weather past 2 weeks in Marseille, France

Now
79 °F

Sunny.


Feels Like: 80 °F
Forecast: 65 / 85 °F
Wind: 2 mph from North

Location: Marseille / Marignane

Current Time: Aug 29, 2014 at 10:50:30 AM

Latest Report: Aug 29, 2014 at 10:00 AM


Visibility: 10 mi

Pressure: 30.01 "Hg

Humidity: 48%

Dew point: 57 °F

Location of MarseilleLocation

Historic Weather in Marseille — Graph

°F

Marseille temperature yesterday

Maximum temperature yesterday: 88 °F (at 4:00 PM)
Minimum temperature yesterday: 68 °F (at 4:00 AM)
Average temperature yesterday: 75 °F

Past Weeks' High & Low Weather Summary

 TemperatureHumidityPressure
High88 °F (Aug 28, 4:00 PM)94% (Aug 19, 2:00 AM)30.07 "Hg (Aug 19, 2:00 AM)
Low55 °F (Aug 17, 7:00 AM)30% (Aug 21, 3:30 PM)29.83 "Hg (Aug 19, 5:00 AM)
Average72 °F58%29.97 "Hg
* Reported Aug 14 9:00 AM — Aug 29 9:30 AM, Marseille, Weather by CustomWeather, © 2014

Note: Actual official high and low records may vary slightly from our data, if they occured in-between our weather recording intervals... More about our weather records

Advertising

Marseille weather history for previous 24 hours

 ConditionsComfort  
Time TempWeatherWind HumidityBarometerVisibility
9:30 AM
Aug 29
75 °FSunny.3 mph54%30.01 "Hg10 mi
9:00 AM70 °FPassing clouds.6 mph69%30.01 "HgN/A
8:30 AM70 °FSunny.2 mph69%30.01 "Hg10 mi
8:00 AM68 °FSunny.No wind69%30.01 "Hg10 mi
7:30 AM66 °FClear.2 mph73%30.01 "Hg10 mi
7:00 AM68 °FClear.3 mph64%29.98 "Hg10 mi
6:30 AM66 °FPassing clouds.5 mph68%29.98 "HgN/A
6:00 AM64 °FClear.6 mph73%29.98 "Hg10 mi
5:30 AM68 °FClear.2 mph64%29.98 "Hg10 mi
5:00 AM66 °FClear.2 mph68%30.01 "Hg10 mi
4:30 AM66 °FClear.No wind68%30.01 "HgN/A
4:00 AM68 °FClear.2 mph64%30.01 "HgN/A
3:30 AM70 °FClear.3 mph60%30.01 "HgN/A
3:00 AM70 °FClear.3 mph60%30.01 "HgN/A
2:30 AM70 °FClear.5 mph60%30.01 "HgN/A
2:00 AM70 °FClear.5 mph57%30.01 "HgN/A
1:30 AM66 °FClear.6 mph68%30.01 "HgN/A
1:00 AM66 °FClear.6 mph68%30.04 "Hg10 mi
12:30 AM66 °FPassing clouds.3 mph68%30.04 "HgN/A
12:00 AM70 °FClear.3 mph57%30.04 "Hg10 mi
11:30 PM
Aug 28
70 °FClear.5 mph57%30.01 "Hg10 mi
11:00 PM70 °FClear.3 mph60%30.01 "Hg10 mi
10:30 PM72 °FClear.5 mph57%30.01 "Hg10 mi
10:00 PM72 °FClear.2 mph57%30.01 "Hg10 mi
9:30 PM73 °FClear.6 mph53%30.01 "Hg10 mi
9:00 PM73 °FSunny.6 mph47%29.98 "Hg10 mi
8:30 PM75 °FSunny.9 mph47%29.98 "Hg10 mi
8:00 PM79 °FSunny.6 mph39%29.98 "Hg10 mi
7:30 PM81 °FSunny.6 mph34%29.95 "Hg10 mi
7:00 PM81 °FSunny.8 mph39%29.98 "Hg10 mi
6:30 PM81 °FSunny.12 mph42%29.98 "Hg10 mi
6:00 PM82 °FSunny.14 mph40%29.98 "Hg10 mi
5:30 PM82 °FSunny.12 mph40%29.95 "Hg10 mi
5:00 PM84 °FSunny.14 mph37%29.95 "Hg10 mi
4:30 PM86 °FSunny.14 mph38%29.95 "Hg10 mi
4:00 PM88 °FSunny.7 mph33%29.95 "Hg10 mi
3:30 PM86 °FPassing clouds.5 mph35%29.95 "HgN/A
3:00 PM86 °FSunny.3 mph33%29.98 "Hg10 mi
2:30 PM84 °FSunny.3 mph37%29.98 "Hg10 mi
1:30 PM82 °FSunny.10 mph42%29.98 "Hg10 mi
1:00 PM81 °FSunny.9 mph45%29.98 "Hg10 mi
12:30 PM79 °FSunny.10 mph48%29.98 "Hg10 mi
12:00 PM77 °FPassing clouds.7 mph47%29.98 "HgN/A
11:34 AM77 °FPassing clouds.5 mph47%29.98 "HgN/A
11:00 AM75 °FSunny.3 mph50%29.98 "Hg10 mi
10:30 AM73 °FPassing clouds.3 mph53%29.98 "HgN/A
10:00 AM72 °FPassing clouds.6 mph57%29.98 "HgN/A
Weather by CustomWeather, © 2014

See weather overviewHow to use our weather pages